Location: Rounton
(54.4000°N, 1.3500°W)
Time: 17:33:15
(UTC+00:00)

S-56A Canister/Altair - All Passes

Search period start: 30 November 2021 00:00
Search period end: 10 December 2021 00:00
Orbit: 633 x 2500 km, 38.9° (Epoch: 29 November)

Date Brightness Start Highest point End Pass type
(mag) Time Alt. Az. Time Alt. Az. Time Alt. Az.
30 Nov - 01:26:02 10° SSW 01:29:11 13° SSE 01:31:57 10° SE night (unlit)
30 Nov - 03:28:27 10° SW 03:31:50 16° S 03:34:46 10° SSE visible
01 Dec - 00:53:09 10° SSW 00:56:39 14° SSE 00:59:40 10° SE night (unlit)
01 Dec - 02:55:27 10° SW 02:59:23 17° S 03:02:41 10° SE visible
01 Dec - 05:01:00 10° SSW 05:01:42 10° SSW 05:02:22 10° SSW visible
02 Dec - 00:20:15 10° S 00:24:05 14° SSE 00:27:22 10° SE night (unlit)
02 Dec - 02:22:24 10° SW 02:26:54 18° S 02:30:35 10° SE night (unlit)
02 Dec - 04:27:12 10° SW 04:29:18 12° SSW 04:31:14 10° S visible
02 Dec - 23:47:21 10° S 23:51:29 14° SSE 23:55:00 10° SE night (unlit)
03 Dec - 01:49:19 10° SW 01:54:24 19° S 01:58:28 10° SE night (unlit)
03 Dec - 03:53:51 10° SW 03:56:53 14° SSW 03:59:34 10° SSE visible
03 Dec - 23:14:27 10° S 23:18:50 14° SSE 23:22:34 10° SE night (unlit)
04 Dec - 01:16:11 10° SW 01:21:52 21° S 01:26:18 10° SE night (unlit)
04 Dec - 03:20:35 10° SW 03:24:28 16° SSW 03:27:45 10° SSE visible
04 Dec - 22:41:35 10° S 22:46:10 14° SSE 22:50:03 10° SE night (unlit)
05 Dec - 00:43:01 10° SW 00:49:17 22° S 00:54:07 10° SE night (unlit)
05 Dec - 02:47:20 10° WSW 02:52:01 19° SSW 02:55:49 10° SSE night (unlit)
05 Dec - 22:08:47 10° S 22:13:27 14° SSE 22:17:27 10° SE night (unlit)
06 Dec - 00:09:49 10° SW 00:16:40 22° S 00:21:53 10° SE night (unlit)
06 Dec - 02:14:03 10° WSW 02:19:32 21° SSW 02:23:50 10° SE night (unlit)
06 Dec - 21:36:03 10° S 21:40:42 13° SSE 21:44:45 10° SE night (unlit)
06 Dec - 23:36:35 10° SW 23:43:59 23° S 23:49:37 10° ESE night (unlit)
07 Dec - 01:40:44 10° WSW 01:47:01 23° S 01:51:48 10° SE night (unlit)
07 Dec - 03:47:11 10° SW 03:49:15 12° SSW 03:51:09 10° SSW night (unlit)
07 Dec - 21:03:27 10° S 21:07:55 13° SSE 21:11:52 10° SE visible
07 Dec - 23:03:21 10° SSW 23:11:16 23° SSE 23:17:17 10° ESE night (unlit)
08 Dec - 01:07:23 10° WSW 01:14:26 25° S 01:19:42 10° SE night (unlit)
08 Dec - 03:13:18 10° WSW 03:16:51 14° SSW 03:19:53 10° S night (unlit)
08 Dec - 20:31:02 10° SSE 20:35:07 12° SE 20:38:48 10° SE visible
08 Dec - 22:30:07 10° SSW 22:38:30 24° SSE 22:44:54 10° ESE night (unlit)
09 Dec - 00:34:00 10° WSW 00:41:49 27° S 00:47:34 10° SE night (unlit)
09 Dec - 02:39:40 10° WSW 02:44:24 17° SSW 02:48:16 10° S night (unlit)
09 Dec - 19:58:53 10° SSE 20:02:17 11° SE 20:05:25 10° SE visible
09 Dec - 21:56:55 10° SSW 22:05:40 24° SSE 22:12:27 10° ESE visible
